20040406,000000,1209590,31.655640,-123.081280,NaN,16.687,33.024,42.330,1093.48,0.0, NaN,15.470,15.429, NaN,24.071,   NaN,13.32,1018.81,83.18,13.02,40.6,38.2,6.6,6.7,358.0,355.1,6.1,6.2,NaN, NaN,NaN,294.6,NaN,1081209601,NaN,NaN,1.5,000001,   NaN,307.9,31.655540,-123.081170,-0.33,NaN,NaN,16.691, NaN,NaN,NaN, NaN, NaN
20040406,000030,1209620,31.655740,-123.081620,NaN,16.687,33.016,42.320,1219.31,0.0, NaN,15.470,15.430, NaN,24.065,   NaN,13.35,1018.84,83.11,13.07,43.0,41.5,6.3,6.3,0.9,359.5,5.9,5.9,NaN, NaN,NaN,281.5,NaN,1081209631,NaN,NaN,2.5,000031,   NaN,307.7,31.655640,-123.081500,-0.38,NaN,NaN,16.691, NaN,NaN,NaN, NaN, NaN
20040406,000101,1209651,31.655810,-123.081950,NaN,16.685,33.026,42.330,1426.88,0.0, NaN,15.473,15.435, NaN,24.073,   NaN,13.28,1018.86,82.45,13.05,44.2,42.9,6.2,5.9,2.3,1.3,5.8,5.5,NaN, NaN,NaN,286.8,NaN,1081209662,NaN,NaN,2.1,000061,   NaN,308.9,31.655710,-123.081860,-0.52,NaN,NaN,16.689, NaN,NaN,NaN, NaN, NaN
20040406,000131,1209681,31.655880,-123.082260,NaN,16.694,33.026,42.338,1467.60,0.0, NaN,15.477,15.437, NaN,24.071,   NaN,13.21,1018.85,82.32,13.01,42.7,43.2,6.5,6.2,0.2,1.2,6.2,5.9,NaN, NaN,NaN,289.0,NaN,1081209692,NaN,NaN,1.0,000091,   NaN,310.6,31.655770,-123.082160,-0.46,NaN,NaN,16.698, NaN,NaN,NaN, NaN, NaN
20040406,000201,1209711,31.655950,-123.082540,NaN,16.690,33.027,42.336,1716.14,0.0, NaN,15.480,15.438, NaN,24.073,   NaN,13.23,1018.85,82.34,13.00,41.4,41.7,6.8,6.6,359.0,359.4,6.5,6.3,NaN, NaN,NaN,297.4,NaN,1081209722,NaN,NaN,2.4,000122,   NaN,309.3,31.655830,-123.082430,-0.43,NaN,NaN,16.694, NaN,NaN,NaN, NaN, NaN
20040406,000231,1209740,31.655990,-123.082820,NaN,16.690,33.023,42.330,2189.83,0.0, NaN,15.481,15.442, NaN,24.069,   NaN,13.20,1018.86,82.15,13.00,44.6,43.4,6.4,6.2,2.0,1.2,6.1,5.9,NaN, NaN,NaN,260.4,NaN,1081209752,NaN,NaN,2.3,000152,   NaN,307.2,31.655880,-123.082710,-0.43,NaN,NaN,16.694, NaN,NaN,NaN, NaN, NaN
20040406,000301,1209771,31.656010,-123.083070,NaN,16.690,33.029,42.338,1857.18,0.0, NaN,15.482,15.447, NaN,24.074,   NaN,13.27,1018.88,82.45,13.02,46.9,47.2,6.3,5.6,2.8,3.9,6.2,5.5,NaN, NaN,NaN,262.2,NaN,1081209782,NaN,NaN,1.2,000182,   NaN,308.1,31.655900,-123.082970,-0.44,NaN,NaN,16.694, NaN,NaN,NaN, NaN, NaN
20040406,000331,1209801,31.656010,-123.083260,NaN,16.688,33.030,42.337,1183.26,0.0, NaN,15.484,15.448, NaN,24.076,   NaN,13.18,1018.86,82.25,13.00,44.7,46.3,6.5,5.8,0.2,2.5,6.4,5.8,NaN, NaN,NaN,242.9,NaN,1081209812,NaN,NaN,0.8,000211,   NaN,311.4,31.655890,-123.083160,-0.54,NaN,NaN,16.692, NaN,NaN,NaN, NaN, NaN
20040406,000401,1209831,31.655990,-123.083440,NaN,16.686,33.031,42.337,1139.88,0.0, NaN,15.486,15.450, NaN,24.077,   NaN,13.06,1018.93,81.90,12.94,44.5,44.4,6.4,5.9,1.4,1.8,6.5,6.0,NaN, NaN,NaN,254.4,NaN,1081209842,NaN,NaN,0.9,000242,   NaN,314.1,31.655850,-123.083350,-0.57,NaN,NaN,16.690, NaN,NaN,NaN, NaN, NaN
20040406,000431,1209861,31.655960,-123.083620,NaN,16.683,33.032,42.335,1104.46,0.0, NaN,15.489,15.454, NaN,24.079,   NaN,13.02,1018.92,82.33,12.90,44.1,42.7,6.0,5.8,3.5,2.3,6.1,5.9,NaN, NaN,NaN,261.1,NaN,1081209872,NaN,NaN,1.1,000271,   NaN,317.4,31.655830,-123.083530,-0.49,NaN,NaN,16.687, NaN,NaN,NaN, NaN, NaN
20040406,000501,1209891,31.655970,-123.083770,NaN,16.661,33.033,42.315,1071.10,0.0, NaN,15.494,15.456, NaN,24.084,   NaN,13.14,1018.89,83.19,12.96,43.7,42.7,5.8,5.6,6.1,5.1,6.0,5.8,NaN, NaN,NaN,259.9,NaN,1081209902,NaN,NaN,1.2,000301,   NaN,316.9,31.655820,-123.083690,-0.62,NaN,NaN,16.665, NaN,NaN,NaN, NaN, NaN
20040406,000531,1209920,31.655940,-123.083940,NaN,16.639,33.035,42.296,1080.48,0.0, NaN,15.495,15.455, NaN,24.090,   NaN,13.20,1018.90,83.56,12.99,42.6,42.1,5.8,5.7,5.2,4.7,6.0,5.9,NaN, NaN,NaN,244.6,NaN,1081209932,NaN,NaN,2.0,000332,   NaN,314.7,31.655820,-123.083820,-0.53,NaN,NaN,16.643, NaN,NaN,NaN, NaN, NaN
20040406,000601,1209951,31.655940,-123.084080,NaN,16.625,33.035,42.284,1104.62,0.0, NaN,15.497,15.455, NaN,24.094,   NaN,13.24,1018.86,83.61,13.03,45.3,45.3,6.0,5.6,5.6,5.8,6.1,5.8,NaN, NaN,NaN,262.7,NaN,1081209962,NaN,NaN,1.6,000361,   NaN,312.9,31.655810,-123.083990,-0.54,NaN,NaN,16.629, NaN,NaN,NaN, NaN, NaN
20040406,000631,1209981,31.655910,-123.084250,NaN,16.617,33.036,42.277,1135.99,0.0, NaN,15.497,15.456, NaN,24.097,   NaN,13.17,1018.83,83.48,13.00,45.8,46.6,6.7,6.1,4.1,5.2,6.8,6.3,NaN, NaN,NaN,236.8,NaN,1081209992,NaN,NaN,2.5,000392,   NaN,312.4,31.655780,-123.084150,-0.56,NaN,NaN,16.621, NaN,NaN,NaN, NaN, NaN
20040406,000701,1210011,31.655870,-123.084400,NaN,16.618,33.037,42.278,1188.65,0.0, NaN,15.498,15.459, NaN,24.097,   NaN,13.07,1018.82,83.48,12.95,43.8,44.4,7.1,6.6,0.8,1.7,7.3,6.7,NaN, NaN,NaN,281.9,NaN,1081210022,NaN,NaN,1.0,000421,   NaN,310.4,31.655750,-123.084300,-0.70,NaN,NaN,16.622, NaN,NaN,NaN, NaN, NaN
20040406,000731,1210041,31.655800,-123.084570,NaN,16.627,33.035,42.285,1267.91,0.0, NaN,15.500,15.461, NaN,24.094,   NaN,13.19,1018.82,84.54,13.00,46.9,47.6,7.1,6.4,2.8,3.8,7.4,6.7,NaN, NaN,NaN,261.2,NaN,1081210052,NaN,NaN,0.7,000451,   NaN,312.1,31.655690,-123.084470,-0.66,NaN,NaN,16.631, NaN,NaN,NaN, NaN, NaN
20040406,000801,1210071,31.655770,-123.084740,NaN,16.625,33.037,42.285,1692.25,0.0, NaN,15.502,15.463, NaN,24.095,   NaN,13.14,1018.84,84.36,12.97,48.5,49.8,7.3,6.3,4.7,6.4,7.5,6.6,NaN, NaN,NaN,247.3,NaN,1081210082,NaN,NaN,2.5,000482,   NaN,315.4,31.655640,-123.084630,-0.72,NaN,NaN,16.629, NaN,NaN,NaN, NaN, NaN
20040406,000831,1210101,31.655730,-123.084880,NaN,16.626,33.036,42.285,2000.73,0.0, NaN,15.504,15.464, NaN,24.095,   NaN,13.11,1018.86,84.32,12.92,46.8,48.4,7.4,6.6,5.7,7.6,7.6,6.9,NaN, NaN,NaN,249.0,NaN,1081210112,NaN,NaN,2.0,000511,   NaN,316.9,31.655600,-123.084790,-0.67,NaN,NaN,16.630, NaN,NaN,NaN, NaN, NaN
20040406,000901,1210131,31.655690,-123.085030,NaN,16.624,33.037,42.284,1875.63,0.0, NaN,15.504,15.465, NaN,24.096,   NaN,13.01,1018.83,84.37,12.85,47.5,47.9,7.0,6.3,8.3,9.0,7.3,6.6,NaN, NaN,NaN,250.7,NaN,1081210142,NaN,NaN,1.0,000542,   NaN,317.9,31.655560,-123.084950,-0.53,NaN,NaN,16.628, NaN,NaN,NaN, NaN, NaN
20040406,000931,1210161,31.655670,-123.085190,NaN,16.626,33.037,42.286,1797.61,0.0, NaN,15.505,15.467, NaN,24.095,   NaN,13.09,1018.85,85.05,12.86,49.2,49.6,6.6,5.8,11.3,12.3,6.9,6.0,NaN, NaN,NaN,268.7,NaN,1081210172,NaN,NaN,2.0,000572,   NaN,320.6,31.655530,-123.085100,-0.54,NaN,NaN,16.630, NaN,NaN,NaN, NaN, NaN
20040406,001001,1210191,31.655640,-123.085330,NaN,16.628,33.037,42.288,1836.34,0.0, NaN,15.507,15.468, NaN,24.095,   NaN,12.97,1018.85,84.34,12.81,50.6,52.0,6.6,5.7,14.2,16.2,6.8,5.9,NaN, NaN,NaN,237.4,NaN,1081210202,NaN,NaN,1.8,000602,   NaN,319.9,31.655520,-123.085230,-0.59,NaN,NaN,16.632, NaN,NaN,NaN, NaN, NaN
20040406,001031,1210221,31.655620,-123.085450,NaN,16.630,33.038,42.291,1598.31,0.0, NaN,15.510,15.472, NaN,24.095,   NaN,12.91,1018.84,84.63,12.78,52.3,54.1,6.2,5.3,16.2,18.4,6.5,5.6,NaN, NaN,NaN,51.5,NaN,1081210232,NaN,NaN,0.7,000631,   NaN,318.6,31.655490,-123.085370,-0.51,NaN,NaN,16.634, NaN,NaN,NaN, NaN, NaN
20040406,001101,1210250,31.655590,-123.085610,NaN,16.632,33.039,42.294,1446.54,0.0, NaN,15.512,15.474, NaN,24.095,   NaN,12.93,1018.89,84.96,12.77,53.7,56.0,5.8,4.8,16.5,19.5,6.1,5.1,NaN, NaN,NaN,246.7,NaN,1081210262,NaN,NaN,0.9,000661,   NaN,316.1,31.655470,-123.085520,-0.54,NaN,NaN,16.636, NaN,NaN,NaN, NaN, NaN
20040406,001131,1210281,31.655570,-123.085760,NaN,16.633,33.040,42.296,1074.38,0.0, NaN,15.511,15.474, NaN,24.096,   NaN,12.91,1018.88,85.31,12.78,52.8,55.1,5.6,4.6,14.3,17.3,5.9,4.9,NaN, NaN,NaN,325.9,NaN,1081210292,NaN,NaN,0.8,000691,   NaN,314.4,31.655440,-123.085660,-0.57,NaN,NaN,16.637, NaN,NaN,NaN, NaN, NaN
20040406,001201,1210311,31.655540,-123.085910,NaN,16.634,33.040,42.298,964.61,0.0, NaN,15.513,15.475, NaN,24.096,   NaN,13.01,1018.90,86.13,12.78,52.2,53.0,5.3,4.5,12.0,13.6,5.5,4.8,NaN, NaN,NaN,255.3,NaN,1081210322,NaN,NaN,2.3,000721,   NaN,314.5,31.655420,-123.085820,-0.52,NaN,NaN,16.638, NaN,NaN,NaN, NaN, NaN
20040406,001231,1210341,31.655520,-123.086060,NaN,16.637,33.041,42.301,925.14,0.0, NaN,15.513,15.476, NaN,24.096,   NaN,13.03,1018.84,86.15,12.81,47.6,47.7,5.7,5.2,7.8,8.4,5.9,5.4,NaN, NaN,NaN,253.4,NaN,1081210352,NaN,NaN,1.8,000751,   NaN,320.1,31.655380,-123.085980,-0.55,NaN,NaN,16.641, NaN,NaN,NaN, NaN, NaN
20040406,001301,1210371,31.655490,-123.086220,NaN,16.639,33.042,42.304,889.92,0.0, NaN,15.517,15.479, NaN,24.096,   NaN,12.97,1018.83,86.12,12.80,44.7,44.2,6.7,6.0,7.1,7.1,6.9,6.2,NaN, NaN,NaN,279.2,NaN,1081210382,NaN,NaN,2.0,000782,   NaN,319.9,31.655360,-123.086130,-0.60,NaN,NaN,16.643, NaN,NaN,NaN, NaN, NaN
20040406,001331,1210401,31.655460,-123.086380,NaN,16.640,33.042,42.305,871.42,0.0, NaN,15.516,15.479, NaN,24.096,   NaN,12.86,1018.80,85.65,12.76,47.5,46.6,7.1,6.3,11.7,11.2,7.3,6.5,NaN, NaN,NaN,264.3,NaN,1081210412,NaN,NaN,0.0,000812,   NaN,321.9,31.655340,-123.086290,-0.46,NaN,NaN,16.644, NaN,NaN,NaN, NaN, NaN
20040406,001401,1210431,31.655480,-123.086530,NaN,16.641,33.042,42.306,942.28,0.0, NaN,15.518,15.481, NaN,24.095,   NaN,12.78,1018.85,85.87,12.69,47.2,47.7,7.1,6.4,13.3,14.2,7.3,6.6,NaN, NaN,NaN,284.6,NaN,1081210442,NaN,NaN,0.7,000841,   NaN,325.8,31.655340,-123.086470,-0.66,NaN,NaN,16.645, NaN,NaN,NaN, NaN, NaN
20040406,001431,1210461,31.655500,-123.086720,NaN,16.641,33.042,42.306,954.93,0.0, NaN,15.520,15.482, NaN,24.095,   NaN,12.73,1018.81,86.00,12.64,44.2,44.3,7.0,6.7,13.7,14.0,7.1,6.9,NaN, NaN,NaN,294.5,NaN,1081210472,NaN,NaN,1.9,000872,   NaN,327.1,31.655370,-123.086650,-0.49,NaN,NaN,16.645, NaN,NaN,NaN, NaN, NaN
20040406,001501,1210491,31.655540,-123.086880,NaN,16.643,33.043,42.309,820.63,0.0, NaN,15.521,15.485, NaN,24.096,   NaN,12.76,1018.86,86.45,12.61,43.6,43.4,6.9,6.6,15.8,15.7,7.0,6.7,NaN, NaN,NaN,269.8,NaN,1081210502,NaN,NaN,0.5,000902,   NaN,329.1,31.655410,-123.086820,-0.54,NaN,NaN,16.647, NaN,NaN,NaN, NaN, NaN
20040406,001531,1210521,31.655590,-123.087040,NaN,16.644,33.043,42.311,746.31,0.0, NaN,15.523,15.487, NaN,24.096,   NaN,12.68,1018.91,86.12,12.55,42.4,41.0,6.6,6.5,15.9,14.5,6.6,6.4,NaN, NaN,NaN,257.8,NaN,1081210532,NaN,NaN,0.9,000931,   NaN,327.9,31.655470,-123.086980,-0.47,NaN,NaN,16.648, NaN,NaN,NaN, NaN, NaN
20040406,001601,1210551,31.655660,-123.087200,NaN,16.644,33.043,42.310,709.24,0.0, NaN,15.528,15.490, NaN,24.096,   NaN,12.57,1018.93,86.19,12.47,39.3,37.5,6.5,6.7,12.3,10.4,6.5,6.6,NaN, NaN,NaN,322.4,NaN,1081210562,NaN,NaN,2.0,000962,   NaN,326.6,31.655520,-123.087140,-0.45,NaN,NaN,16.648, NaN,NaN,NaN, NaN, NaN
20040406,001631,1210580,31.655690,-123.087370,NaN,16.646,33.044,42.313,684.37,0.0, NaN,15.532,15.492, NaN,24.096,   NaN,12.60,1018.89,86.71,12.46,40.6,39.6,6.4,6.4,13.4,12.3,6.3,6.4,NaN, NaN,NaN,241.9,NaN,1081210592,NaN,NaN,1.2,000991,   NaN,329.6,31.655570,-123.087300,-0.33,NaN,NaN,16.650, NaN,NaN,NaN, NaN, NaN
20040406,001701,1210611,31.655750,-123.087520,NaN,16.648,33.044,42.315,667.65,0.0, NaN,15.534,15.496, NaN,24.096,   NaN,12.59,1018.92,86.68,12.46,40.6,40.2,6.0,6.1,15.3,14.8,6.0,6.0,NaN, NaN,NaN,284.5,NaN,1081210622,NaN,NaN,0.0,001021,   NaN,332.2,31.655630,-123.087460,-0.48,NaN,NaN,16.652, NaN,NaN,NaN, NaN, NaN
20040406,001731,1210641,31.655830,-123.087660,NaN,16.649,33.044,42.317,656.82,0.0, NaN,15.536,15.498, NaN,24.095,   NaN,12.66,1018.93,87.28,12.49,37.8,35.6,5.7,6.0,15.6,13.1,5.6,5.9,NaN, NaN,NaN,294.8,NaN,1081210652,NaN,NaN,1.2,001051,   NaN,337.1,31.655690,-123.087610,-0.43,NaN,NaN,16.653, NaN,NaN,NaN, NaN, NaN
20040406,001801,1210671,31.655920,-123.087770,NaN,16.652,33.045,42.321,642.79,0.0, NaN,15.538,15.499, NaN,24.096,   NaN,12.84,1018.97,87.84,12.59,30.9,27.9,5.6,6.1,12.8,9.2,5.4,5.9,NaN, NaN,NaN,347.6,NaN,1081210682,NaN,NaN,1.7,001082,   NaN,341.8,31.655760,-123.087730,-0.39,NaN,NaN,16.656, NaN,NaN,NaN, NaN, NaN
20040406,001831,1210701,31.656010,-123.087860,NaN,16.657,33.046,42.327,626.41,0.0, NaN,15.541,15.503, NaN,24.095,   NaN,12.73,1018.97,87.14,12.51,21.0,20.1,5.9,6.5,6.7,5.3,5.7,6.3,NaN, NaN,NaN,326.6,NaN,1081210712,NaN,NaN,1.0,001112,   NaN,344.7,31.655850,-123.087830,-0.33,NaN,NaN,16.661, NaN,NaN,NaN, NaN, NaN
20040406,001901,1210731,31.656150,-123.087930,NaN,16.659,33.047,42.329,598.86,0.0, NaN,15.544,15.509, NaN,24.095,   NaN,12.70,1018.95,87.19,12.50,18.4,17.1,6.3,6.7,7.2,5.6,5.9,6.3,NaN, NaN,NaN,329.8,NaN,1081210742,NaN,NaN,1.5,001142,   NaN,352.6,31.655980,-123.087930,-0.20,NaN,NaN,16.663, NaN,NaN,NaN, NaN, NaN
20040406,001931,1210760,31.656280,-123.087960,NaN,16.664,33.047,42.335,559.27,0.0, NaN,15.544,15.508, NaN,24.094,   NaN,12.73,1018.95,87.33,12.52,11.2,11.4,6.3,6.8,6.5,6.4,5.8,6.3,NaN, NaN,NaN,44.5,NaN,1081210772,NaN,NaN,2.3,001172,   NaN,6.1,31.656130,-123.088000,-0.15,NaN,NaN,16.668, NaN,NaN,NaN, NaN, NaN
20040406,002001,1210791,31.656460,-123.087930,NaN,16.666,33.048,42.337,515.14,0.0, NaN,15.546,15.509, NaN,24.094,   NaN,12.74,1018.97,87.24,12.53,0.1,0.2,6.1,6.7,3.0,3.2,5.6,6.2,NaN, NaN,NaN,16.0,NaN,1081210802,NaN,NaN,1.2,001201,   NaN,7.9,31.656310,-123.087970,0.01,NaN,NaN,16.670, NaN,NaN,NaN, NaN, NaN
20040406,002031,1210821,31.656690,-123.087840,NaN,16.666,33.048,42.337,477.16,0.0, NaN,15.546,15.509, NaN,24.094,   NaN,12.77,1018.94,87.44,12.56,351.5,350.0,6.1,6.5,356.1,354.6,5.4,5.9,NaN, NaN,NaN,9.1,NaN,1081210832,NaN,NaN,2.8,001231,   NaN,5.9,31.656550,-123.087890,0.19,NaN,NaN,16.670, NaN,NaN,NaN, NaN, NaN
20040406,002101,1210851,31.656980,-123.087770,NaN,16.668,33.048,42.338,450.62,0.0, NaN,15.548,15.511, NaN,24.094,   NaN,12.78,1018.93,87.34,12.57,348.7,345.7,6.4,6.6,351.6,348.4,5.5,5.7,NaN, NaN,NaN,19.1,NaN,1081210862,NaN,NaN,2.7,001261,   NaN,5.7,31.656840,-123.087810,0.14,NaN,NaN,16.672, NaN,NaN,NaN, NaN, NaN
20040406,002131,1210881,31.657300,-123.087680,NaN,16.669,33.048,42.340,427.69,0.0, NaN,15.545,15.508, NaN,24.094,   NaN,12.79,1018.96,87.32,12.59,349.4,346.8,6.7,7.1,352.1,349.2,5.6,6.0,NaN, NaN,NaN,19.1,NaN,1081210892,NaN,NaN,3.3,001292,   NaN,6.1,31.657150,-123.087740,0.13,NaN,NaN,16.673, NaN,NaN,NaN, NaN, NaN
20040406,002201,1210911,31.657480,-123.087620,NaN,16.671,33.049,42.342,411.61,0.0, NaN,15.544,15.506, NaN,24.094,   NaN,12.68,1018.97,86.63,12.50,348.6,346.4,6.3,6.7,350.8,348.5,5.4,5.8,NaN, NaN,NaN,15.8,NaN,1081210922,NaN,NaN,1.1,001321,   NaN,4.1,31.657340,-123.087670,0.02,NaN,NaN,16.675, NaN,NaN,NaN, NaN, NaN
20040406,002231,1210941,31.657630,-123.087580,NaN,16.674,33.048,42.344,408.02,0.0, NaN,15.547,15.508, NaN,24.092,   NaN,12.66,1018.99,86.75,12.47,350.7,348.6,5.6,6.2,351.6,349.5,5.0,5.6,NaN, NaN,NaN,358.5,NaN,1081210952,NaN,NaN,0.8,001352,   NaN,1.6,31.657480,-123.087610,0.11,NaN,NaN,16.678, NaN,NaN,NaN, NaN, NaN
20040406,002301,1210971,31.657880,-123.087530,NaN,16.673,33.048,42.344,410.98,0.0, NaN,15.547,15.511, NaN,24.093,   NaN,12.72,1018.94,87.06,12.52,358.0,355.6,5.8,6.6,358.2,355.9,5.1,5.9,NaN, NaN,NaN,334.5,NaN,1081210982,NaN,NaN,2.0,001382,   NaN,3.0,31.657720,-123.087570,0.02,NaN,NaN,16.677, NaN,NaN,NaN, NaN, NaN
20040406,002331,1211001,31.658260,-123.087510,NaN,16.673,33.049,42.344,416.56,0.0, NaN,15.549,15.511, NaN,24.093,   NaN,12.73,1018.94,86.84,12.52,0.1,359.2,6.2,7.2,359.0,358.4,5.2,6.1,NaN, NaN,NaN,7.7,NaN,1081211012,NaN,NaN,2.8,001412,   NaN,352.6,31.658120,-123.087520,0.26,NaN,NaN,16.677, NaN,NaN,NaN, NaN, NaN
20040406,002401,1211031,31.658780,-123.087680,NaN,16.673,33.049,42.345,422.02,0.0, NaN,15.546,15.508, NaN,24.093,   NaN,12.77,1018.93,86.88,12.58,7.5,5.6,6.8,7.6,359.1,357.4,5.3,6.0,NaN, NaN,NaN,332.3,NaN,1081211042,NaN,NaN,4.1,001442,   NaN,328.2,31.658630,-123.087620,0.30,NaN,NaN,16.677, NaN,NaN,NaN, NaN, NaN
20040406,002431,1211061,31.659220,-123.088180,NaN,16.675,33.049,42.346,419.48,0.0, NaN,15.543,15.507, NaN,24.093,   NaN,12.80,1018.87,86.73,12.61,24.2,20.8,6.8,7.2,4.4,359.6,5.1,5.4,NaN, NaN,NaN,287.0,NaN,1081211072,NaN,NaN,5.1,001472,   NaN,302.8,31.659100,-123.088070,0.11,NaN,NaN,16.679, NaN,NaN,NaN, NaN, NaN
20040406,002501,1211090,31.659440,-123.088940,NaN,16.678,33.049,42.349,419.63,0.0, NaN,15.542,15.504, NaN,24.093,   NaN,12.84,1018.84,86.83,12.61,40.7,35.8,6.1,6.2,7.1,1.5,4.7,4.5,NaN, NaN,NaN,282.2,NaN,1081211102,NaN,NaN,5.0,001501,   NaN,278.9,31.659370,-123.088810,0.18,NaN,NaN,16.682, NaN,NaN,NaN, NaN, NaN
20040406,002531,1211121,31.659340,-123.089930,NaN,16.682,33.050,42.354,427.86,0.0, NaN,15.542,15.502, NaN,24.092,   NaN,12.88,1018.88,86.78,12.61,50.8,48.3,5.3,4.6,3.6,8.0,4.3,3.7,NaN, NaN,NaN,246.7,NaN,1081211132,NaN,NaN,6.1,001532,   NaN,251.3,31.659330,-123.089760,0.22,NaN,NaN,16.686, NaN,NaN,NaN, NaN, NaN
20040406,002601,1211151,31.658850,-123.090860,NaN,16.679,33.049,42.350,435.18,0.0, NaN,15.542,15.504, NaN,24.092,   NaN,12.92,1018.95,86.94,12.67,58.8,60.7,4.4,3.2,0.6,15.9,4.0,3.4,NaN, NaN,NaN,228.2,NaN,1081211162,NaN,NaN,6.9,001562,   NaN,234.1,31.658880,-123.090710,0.22,NaN,NaN,16.683, NaN,NaN,NaN, NaN, NaN
20040406,002631,1211181,31.658220,-123.091790,NaN,16.672,33.050,42.344,441.81,0.0, NaN,15.543,15.506, NaN,24.094,   NaN,12.90,1018.88,86.52,12.69,64.5,65.5,3.6,2.3,1.9,20.2,4.1,3.6,NaN, NaN,NaN,233.5,NaN,1081211192,NaN,NaN,8.4,001591,   NaN,243.1,31.658220,-123.091670,-0.12,NaN,NaN,16.676, NaN,NaN,NaN, NaN, NaN
20040406,002701,1211211,31.657610,-123.092900,NaN,16.667,33.050,42.341,447.74,0.0, NaN,15.542,15.506, NaN,24.096,   NaN,13.01,1018.93,87.18,12.74,70.1,73.8,3.6,1.8,6.7,29.6,4.6,4.0,NaN, NaN,NaN,230.9,NaN,1081211222,NaN,NaN,8.2,001621,   NaN,239.3,31.657640,-123.092780,0.12,NaN,NaN,16.671, NaN,NaN,NaN, NaN, NaN
20040406,002731,1211241,31.656950,-123.094090,NaN,16.666,33.046,42.334,453.45,0.0, NaN,15.543,15.507, NaN,24.093,   NaN,13.16,1018.86,87.16,12.84,75.7,79.0,4.4,2.1,6.5,31.8,5.5,4.5,NaN, NaN,NaN,237.5,NaN,1081211253,NaN,NaN,8.7,001652,   NaN,240.5,31.656970,-123.093930,-0.06,NaN,NaN,16.670, NaN,NaN,NaN, NaN, NaN
20040406,002801,1211270,31.656280,-123.095320,NaN,16.664,33.050,42.337,451.34,0.0, NaN,15.544,15.509, NaN,24.097,   NaN,13.14,1018.79,86.11,12.84,78.7,79.9,5.0,2.0,5.1,32.9,6.3,4.8,NaN, NaN,NaN,247.5,NaN,1081211282,NaN,NaN,9.4,001682,   NaN,240.1,31.656290,-123.095160,-0.07,NaN,NaN,16.668, NaN,NaN,NaN, NaN, NaN
20040406,002831,1211301,31.655570,-123.096580,NaN,16.654,33.050,42.328,443.20,0.0, NaN,15.545,15.510, NaN,24.099,   NaN,13.05,1018.87,84.79,12.80,77.7,96.1,5.4,1.7,3.4,41.5,6.6,5.2,NaN, NaN,NaN,226.4,NaN,1081211312,NaN,NaN,9.7,001712,   NaN,240.4,31.655590,-123.096420,-0.17,NaN,NaN,16.658, NaN,NaN,NaN, NaN, NaN
20040406,002901,1211331,31.654870,-123.097860,NaN,16.619,33.051,42.296,436.25,0.0, NaN,15.546,15.511, NaN,24.107,   NaN,12.97,1018.91,83.97,12.76,77.1,98.2,5.2,1.8,5.3,40.8,6.5,5.3,NaN, NaN,NaN,240.0,NaN,1081211342,NaN,NaN,9.2,001742,   NaN,240.2,31.654880,-123.097710,0.07,NaN,NaN,16.623, NaN,NaN,NaN, NaN, NaN
20040406,002931,1211361,31.654150,-123.099190,NaN,16.623,33.049,42.297,431.22,0.0, NaN,15.545,15.509, NaN,24.105,   NaN,12.98,1018.88,83.87,12.76,78.3,88.6,4.5,1.8,11.8,39.7,6.2,5.3,NaN, NaN,NaN,232.5,NaN,1081211373,NaN,NaN,10.2,001772,   NaN,240.9,31.654130,-123.099080,-0.12,NaN,NaN,16.627, NaN,NaN,NaN, NaN, NaN
20040406,003001,1211391,31.653400,-123.100510,NaN,16.640,33.052,42.316,428.71,0.0, NaN,15.547,15.512, NaN,24.103,   NaN,13.06,1018.89,83.58,12.80,81.0,81.1,4.4,2.0,13.7,36.4,6.4,5.3,NaN, NaN,NaN,235.8,NaN,1081211402,NaN,NaN,9.7,001802,   NaN,240.4,31.653410,-123.100350,-0.12,NaN,NaN,16.644, NaN,NaN,NaN, NaN, NaN
20040406,003031,1211421,31.652660,-123.101860,NaN,16.654,33.051,42.329,426.87,0.0, NaN,15.550,15.514, NaN,24.100,   NaN,13.06,1018.89,82.93,12.81,78.8,85.2,4.7,1.8,11.2,38.6,6.4,5.3,NaN, NaN,NaN,246.3,NaN,1081211432,NaN,NaN,10.2,001832,   NaN,240.4,31.652670,-123.101700,0.26,NaN,NaN,16.658, NaN,NaN,NaN, NaN, NaN
20040406,003101,1211451,31.651920,-123.103200,NaN,16.663,33.051,42.338,424.62,0.0, NaN,15.548,15.512, NaN,24.097,   NaN,13.10,1018.88,82.66,12.86,79.0,82.1,4.8,1.9,10.4,38.2,6.5,5.2,NaN, NaN,NaN,244.7,NaN,1081211462,NaN,NaN,10.3,001862,   NaN,238.9,31.651930,-123.103040,0.05,NaN,NaN,16.667, NaN,NaN,NaN, NaN, NaN
20040406,003131,1211481,31.651150,-123.104550,NaN,16.670,33.051,42.344,417.07,0.0, NaN,15.550,15.514, NaN,24.096,   NaN,13.23,1018.87,82.88,12.95,81.7,103.4,4.7,1.3,12.5,46.4,6.6,5.3,NaN, NaN,NaN,235.9,NaN,1081211492,NaN,NaN,9.7,001892,   NaN,240.9,31.651170,-123.104400,0.01,NaN,NaN,16.674, NaN,NaN,NaN, NaN, NaN
20040406,003201,1211511,31.650400,-123.105920,NaN,16.679,33.051,42.352,402.81,0.0, NaN,15.551,15.515, NaN,24.093,   NaN,13.28,1018.88,82.61,13.01,86.4,105.2,4.6,1.3,15.2,46.3,6.9,5.4,NaN, NaN,NaN,239.4,NaN,1081211523,NaN,NaN,10.1,001922,   NaN,239.9,31.650410,-123.105760,0.02,NaN,NaN,16.683, NaN,NaN,NaN, NaN, NaN
20040406,003232,1211542,31.649610,-123.107340,NaN,16.681,33.051,42.355,382.60,0.0, NaN,15.551,15.515, NaN,24.093,   NaN,13.34,1018.88,82.64,13.09,86.1,93.3,4.6,1.2,15.2,45.8,6.9,5.4,NaN, NaN,NaN,237.0,NaN,1081211554,NaN,NaN,10.1,001953,   NaN,241.2,31.649620,-123.107180,-0.17,NaN,NaN,16.685, NaN,NaN,NaN, NaN, NaN
20040406,003302,1211572,31.648870,-123.108720,NaN,16.701,33.052,42.374,363.06,0.0, NaN,15.548,15.512, NaN,24.089,   NaN,13.32,1018.92,81.88,13.12,87.0,92.0,4.5,1.2,16.4,46.2,6.9,5.3,NaN, NaN,NaN,237.7,NaN,1081211584,NaN,NaN,9.9,001983,   NaN,238.6,31.648860,-123.108610,-0.02,NaN,NaN,16.705, NaN,NaN,NaN, NaN, NaN
20040406,003332,1211602,31.648090,-123.110090,NaN,16.727,33.052,42.399,348.30,0.0, NaN,15.547,15.513, NaN,24.083,   NaN,13.29,1018.90,81.75,13.11,90.7,91.0,4.4,1.6,18.6,41.8,7.0,5.5,NaN, NaN,NaN,244.0,NaN,1081211613,NaN,NaN,9.7,002013,   NaN,241.4,31.648110,-123.109930,-0.10,NaN,NaN,16.731, NaN,NaN,NaN, NaN, NaN
20040406,003402,1211632,31.647320,-123.111460,NaN,16.751,33.052,42.422,341.34,0.0, NaN,15.547,15.511, NaN,24.078,   NaN,13.38,1018.92,82.28,13.14,92.3,97.2,4.2,1.9,20.8,39.6,7.0,5.8,NaN, NaN,NaN,244.9,NaN,1081211643,NaN,NaN,9.9,002043,   NaN,239.9,31.647350,-123.111300,0.01,NaN,NaN,16.755, NaN,NaN,NaN, NaN, NaN
20040406,003432,1211662,31.646560,-123.112820,NaN,16.762,33.053,42.433,340.33,0.0, NaN,15.544,15.508, NaN,24.076,   NaN,13.54,1018.84,83.11,13.25,87.5,102.0,4.4,1.4,17.8,44.9,6.8,5.7,NaN, NaN,NaN,231.2,NaN,1081211674,NaN,NaN,10.1,002073,   NaN,241.2,31.646590,-123.112670,-0.21,NaN,NaN,16.766, NaN,NaN,NaN, NaN, NaN
20040406,003502,1211692,31.645820,-123.114220,NaN,16.773,33.053,42.444,342.82,0.0, NaN,15.544,15.508, NaN,24.073,   NaN,13.50,1018.91,81.92,13.28,83.5,96.1,4.7,1.3,14.8,48.8,6.8,5.5,NaN, NaN,NaN,246.0,NaN,1081211704,NaN,NaN,9.6,002103,   NaN,241.0,31.645840,-123.114060,0.12,NaN,NaN,16.777, NaN,NaN,NaN, NaN, NaN
20040406,003532,1211722,31.645070,-123.115580,NaN,16.781,33.053,42.451,346.03,0.0, NaN,15.543,15.504, NaN,24.071,   NaN,13.47,1018.87,82.04,13.26,84.1,114.7,4.8,1.2,13.7,49.9,6.9,5.6,NaN, NaN,NaN,228.5,NaN,1081211734,NaN,NaN,10.7,002133,   NaN,238.6,31.645100,-123.115420,-0.09,NaN,NaN,16.785, NaN,NaN,NaN, NaN, NaN
20040406,003602,1211752,31.644300,-123.116950,NaN,16.788,33.052,42.457,346.80,0.0, NaN,15.541,15.503, NaN,24.069,   NaN,13.50,1018.86,82.22,13.31,82.1,93.5,4.6,1.5,13.3,43.6,6.6,5.5,NaN, NaN,NaN,236.6,NaN,1081211763,NaN,NaN,9.9,002163,   NaN,240.9,31.644330,-123.116790,-0.02,NaN,NaN,16.792, NaN,NaN,NaN, NaN, NaN
20040406,003633,1211783,31.643540,-123.118320,NaN,16.791,33.052,42.460,342.25,0.0, NaN,15.538,15.502, NaN,24.068,   NaN,13.42,1018.88,81.17,13.27,81.0,93.0,4.5,1.7,13.8,42.1,6.5,5.5,NaN, NaN,NaN,235.3,NaN,1081211794,NaN,NaN,9.7,002193,   NaN,240.3,31.643540,-123.118210,-0.20,NaN,NaN,16.795, NaN,NaN,NaN, NaN, NaN
20040406,003703,1211813,31.642780,-123.119700,NaN,16.791,33.051,42.459,336.08,0.0, NaN,15.535,15.501, NaN,24.068,   NaN,13.31,1018.90,80.85,13.19,78.5,94.4,4.4,1.7,14.4,40.6,6.3,5.5,NaN, NaN,NaN,237.1,NaN,1081211824,NaN,NaN,10.5,002223,   NaN,239.6,31.642790,-123.119590,-0.05,NaN,NaN,16.795, NaN,NaN,NaN, NaN, NaN
20040406,003733,1211843,31.642000,-123.121070,NaN,16.793,33.051,42.461,331.33,0.0, NaN,15.534,15.498, NaN,24.067,   NaN,13.42,1018.87,81.75,13.24,80.4,104.2,4.1,1.4,16.4,46.9,6.3,5.5,NaN, NaN,NaN,229.3,NaN,1081211854,NaN,NaN,10.1,002253,   NaN,240.9,31.642000,-123.120950,0.00,NaN,NaN,16.797, NaN,NaN,NaN, NaN, NaN